This is the latest recevied weather packets stored in our database for station/object EA1HTW-13. If no packets are shown the sender has not sent any weather packets the latest 10 day(s).
| Time | Temp. | Humidity | Pressure | Rain* | Wind** | Luminosity | Snow |
|---|---|---|---|---|---|---|---|
| 1777727115 | 20° C | 56% | 1008.5 hPa | 0 mm | - | - | - |
| 1777726574 | 20° C | 55% | 1008.7 hPa | 0 mm | - | - | - |
| 1777726035 | 20° C | 57% | 1008.6 hPa | 0 mm | - | - | - |
| 1777725494 | 19.44° C | 58% | 1008.6 hPa | 0 mm | - | - | - |
| 1777724956 | 19.44° C | 59% | 1008.8 hPa | 0 mm | - | - | - |
| 1777724414 | 19.44° C | 59% | 1008.8 hPa | 0 mm | - | - | - |
| 1777723874 | 19.44° C | 60% | 1009.1 hPa | 0 mm | - | - | - |
| 1777723334 | 19.44° C | 60% | 1009 hPa | 0 mm | - | - | - |
| 1777722795 | 20° C | 60% | 1009.2 hPa | 0 mm | - | - | - |
| 1777722255 | 20° C | 58% | 1009 hPa | 0 mm | - | - | - |
| 1777721715 | 20° C | 59% | 1009 hPa | 0 mm | - | - | - |
| 1777721175 | 19.44° C | 60% | 1009.4 hPa | 0 mm | - | - | - |
| 1777720634 | 18.89° C | 61% | 1009.3 hPa | 0 mm | - | - | - |
| 1777720095 | 18.33° C | 60% | 1009.6 hPa | 0 mm | - | - | - |
| 1777719554 | 18.89° C | 58% | 1009.6 hPa | 0 mm | - | - | - |
| 1777719015 | 19.44° C | 55% | 1009.5 hPa | 0 mm | - | - | - |
| 1777718475 | 19.44° C | 54% | 1009.5 hPa | 0 mm | - | - | - |
| 1777717934 | 19.44° C | 53% | 1009.4 hPa | 0 mm | - | - | - |
| 1777717395 | 19.44° C | 55% | 1009.4 hPa | 0 mm | - | - | - |
| 1777716855 | 19.44° C | 53% | 1009.5 hPa | 0 mm | - | - | - |
| 1777716314 | 18.89° C | 54% | 1009.6 hPa | 0 mm | - | - | - |
| 1777715776 | 18.89° C | 56% | 1009.4 hPa | 0 mm | - | - | - |
| 1777715234 | 18.33° C | 57% | 1009.6 hPa | 0 mm | - | - | - |
| 1777714695 | 18.33° C | 57% | 1009.6 hPa | 0 mm | - | - | - |
| 1777714154 | 18.89° C | 58% | 1009.4 hPa | 0 mm | - | - | - |
* Rain latest hour (hover to see other rain measurements)
** Current wind speed in m/s (hover to see current wind gust speed)